Syracuse, NY

6:24 PM EST on November 15, 2019 (GMT -0500)
Syracuse Hancock International

Weather History for KSYR - September, 2019

Change the Weather History Date:

Sunday, September 15, 2019

  Actual Average Record
Temperature  
Mean Temperature 64 °F 62 °F  
Max Temperature 75 °F 73 °F 96 °F (1939)
Min Temperature 54 °F 52 °F 33 °F (1913)
Degree Days  
Heating Degree Days 0 4  
Month to date heating degree days 23 40  
Since 1 July heating degree days 28 66  
Cooling Degree Days 0 2  
Month to date cooling degree days 21 39  
Year to date cooling degree days 589 552  
Growing Degree Days 14 (Base 50)    
Moisture  
Dew Point 58 °F    
Average Humidity 83    
Maximum Humidity 93    
Minimum Humidity 57    
Precipitation  
Precipitation 0.11 in 0.12 in 1.23 in (1991)
Month to date precipitation 2.04 1.78  
Year to date precipitation 32.68 26.37  
Snow  
Snow 0.00 in 0.00 in 0.00 in (2002)
Month to date snowfall 0.0 0.0  
Since 1 July snowfall T 0.0  
Since 1 September snowfall 0.0 0.0  
Snow Depth 0.00 in    
Sea Level Pressure  
Sea Level Pressure 30.13 in    
Wind  
Wind Speed 4 mph ()    
Max Wind Speed 15 mph    
Max Gust Speed 19 mph    
Visibility 9.3 miles    
Events Fog , Rain    
T = Trace of Precipitation, MM = Missing Value Source: Averaged Metar Reports

Daily Weather History Graph

Daily Weather History Graph

Search for Another Location

Airport or City:

Astronomy

Sep. 15, 2019 Rise Set
Actual Time 6:43 AM EDT 7:14 PM EDT
Civil Twilight 6:15 AM EDT 7:43 PM EDT
Nautical Twilight 5:41 AM EDT 8:17 PM EDT
Astronomical Twilight 5:06 AM EDT 8:51 PM EDT
Moon 8:20 PM EDT 7:52 AM EDT
Length of Visible Light 13h 28m
Length of Day
12h 31m
Full, 98% of the Moon is Illuminated
Sep 15
Full
Sep 21
Last Quarter
Sep 28
New
Oct 5
First Quarter
Oct 13
Full

Hourly Weather History & Observations

Time (EDT) Temp. Dew Point Humidity Pressure Visibility Wind Dir Wind Speed Gust Speed Precip Events Conditions
12:54 AM 60.1 °F 55.0 °F 83% 30.16 in 10.0 mi WSW 5.8 mph - N/A   Partly Cloudy
1:54 AM 60.1 °F 55.0 °F 83% 30.17 in 10.0 mi SW 6.9 mph - N/A   Partly Cloudy
2:54 AM 59.0 °F 55.0 °F 87% 30.16 in 10.0 mi WSW 4.6 mph - N/A   Clear
3:54 AM 57.9 °F 55.0 °F 90% 30.15 in 10.0 mi Calm Calm - N/A   Clear
4:54 AM 55.9 °F 54.0 °F 93% 30.16 in 10.0 mi Calm Calm - N/A   Partly Cloudy
5:54 AM 55.0 °F 53.1 °F 93% 30.16 in 10.0 mi Calm Calm - N/A Fog Patches of Fog
6:54 AM 54.0 °F 52.0 °F 93% 30.17 in 8.0 mi Calm Calm - N/A Fog Patches of Fog
7:54 AM 57.9 °F 55.9 °F 93% 30.17 in 10.0 mi Calm Calm - N/A Fog Patches of Fog
8:54 AM 64.0 °F 57.9 °F 80% 30.17 in 10.0 mi SSW 4.6 mph - N/A   Scattered Clouds
9:54 AM 66.9 °F 57.9 °F 73% 30.17 in 10.0 mi West 5.8 mph - N/A   Mostly Cloudy
10:09 AM 66.9 °F 57.9 °F 73% 30.17 in 10.0 mi West 5.8 mph - N/A   Mostly Cloudy
10:54 AM 70.0 °F 59.0 °F 68% 30.15 in 10.0 mi West 6.9 mph - N/A   Mostly Cloudy
11:54 AM 71.1 °F 57.9 °F 63% 30.14 in 10.0 mi West 8.1 mph - N/A   Mostly Cloudy
12:54 PM 73.9 °F 59.0 °F 59% 30.14 in 10.0 mi WSW 9.2 mph - N/A   Mostly Cloudy
1:54 PM 73.0 °F 57.9 °F 59% 30.12 in 10.0 mi WSW 10.4 mph - N/A   Mostly Cloudy
2:54 PM 70.0 °F 59.0 °F 68% 30.11 in 10.0 mi WNW 9.2 mph - 0.00 in Rain Light Rain
3:54 PM 66.0 °F 61.0 °F 84% 30.13 in 4.0 mi West 8.1 mph - 0.02 in Rain Rain
3:58 PM 66.0 °F 61.0 °F 84% 30.14 in 1.8 mi WNW 9.2 mph - 0.03 in Rain Heavy Rain
4:08 PM 64.9 °F 61.0 °F 87% 30.12 in 4.0 mi NW 5.8 mph - 0.07 in Rain Rain
4:54 PM 66.0 °F 62.1 °F 87% 30.10 in 10.0 mi NW 4.6 mph - 0.08 in   Overcast
5:01 PM 66.0 °F 62.1 °F 87% 30.11 in 10.0 mi North 5.8 mph - N/A   Overcast
5:54 PM 64.9 °F 60.1 °F 84% 30.11 in 10.0 mi NW 6.9 mph - N/A   Overcast
6:36 PM 64.0 °F 60.1 °F 87% 30.12 in 10.0 mi NW 5.8 mph - N/A   Overcast
6:46 PM 64.0 °F 60.1 °F 87% 30.11 in 10.0 mi NW 4.6 mph - N/A   Overcast
6:54 PM 64.0 °F 60.1 °F 87% 30.11 in 10.0 mi NW 5.8 mph - N/A   Overcast
7:33 PM 63.0 °F 60.1 °F 90% 30.11 in 10.0 mi Calm Calm - N/A   Overcast
7:54 PM 63.0 °F 60.1 °F 90% 30.10 in 10.0 mi WNW 3.5 mph - N/A   Overcast
8:36 PM 63.0 °F 59.0 °F 87% 30.11 in 10.0 mi NNW 4.6 mph - N/A   Overcast
8:54 PM 63.0 °F 59.0 °F 87% 30.10 in 10.0 mi NNW 3.5 mph - N/A   Overcast
9:54 PM 63.0 °F 59.0 °F 87% 30.10 in 10.0 mi NNW 3.5 mph - N/A   Overcast
10:54 PM 62.1 °F 59.0 °F 90% 30.10 in 9.0 mi North 3.5 mph - 0.00 in Rain Light Rain
11:13 PM 62.1 °F 57.9 °F 86% 30.11 in 10.0 mi Calm Calm - 0.00 in Rain Light Rain
11:54 PM 61.0 °F 57.9 °F 90% 30.11 in 10.0 mi Calm Calm - 0.01 in Rain Light Rain